[[{"header":{"parameterUnit":"m.s-1","parameterCategory":1,"la1":30.2991,"la2":30.254,"lo1":-89.0895,"lo2":-89.0444,"dy":0.0017,"dx":0.0017,"nx":28,"ny":28,"refTime":"2025-03-27T21:00:00:Z","depth":0,"parameterNumber":2,"parameterNumberName":"U-component_of_WINDS"},"data":[0,0,0,0,0,0,0,0,0,0,0,0,0,0,0,0,0,0,0,0,0,0,0,0,0,0,0,0,0,0,0,0,0,0,0,0,0,0,0,0,0,0,0,0,0,0,0,0,0,0,0,0,0,0,0,0,0,0,-5.3108,-5.3109,0,-5.3214,-5.3215,-5.3216,-5.321,-5.3208,-5.3207,-5.3205,-5.331,-5.3314,-5.3319,0,0,0,0,0,0,0,0,0,0,0,0,0,-5.2898,-5.2902,-5.3108,-5.3109,-5.311,-5.3213,-5.3215,-5.3216,-5.321,-5.3208,-5.3206,-5.3205,-5.3309,-5.3314,-5.3319,0,0,0,0,0,0,0,0,0,0,0,0,0,-5.2995,-5.2904,-5.3107,-5.312,-5.3122,-5.3213,-5.3215,-5.3217,-5.3211,-5.3208,-5.3206,-5.3204,-5.3307,-5.3313,-5.332,-5.3404,0,0,-5.3339,-5.3342,0,0,0,0,0,0,0,0,-5.299,-5.3003,-5.3117,-5.3119,-5.3122,-5.3196,-5.318,-5.328,-5.3211,-5.3177,-5.3205,-5.3203,-5.3274,-5.3283,-5.3308,-5.3409,-5.3414,-5.334,-5.3343,-5.3346,-5.3348,0,0,0,0,0,0,0,-5.2983,-5.2998,-5.3149,-5.3118,-5.3121,-5.3119,-5.3131,-5.3199,-5.3237,-5.318,-5.3179,-5.3192,-5.3275,-5.3302,-5.331,-5.3415,-5.3339,-5.3345,-5.3349,-5.3351,-5.3593,-5.3595,0,0,0,0,0,0,-5.2974,-5.2993,-5.3146,-5.3153,-5.3049,-5.3125,-5.3138,-5.3175,-5.3236,-5.3243,-5.3194,-5.3192,-5.3292,-5.3303,-5.3314,-5.3416,-5.3346,-5.3352,-5.3356,-5.359,-5.3593,-5.3596,0,0,0,0,0,0,-5.2969,-5.2988,-5.3142,-5.3073,-5.3092,-5.3131,-5.3173,-5.3178,-5.3204,-5.3247,-5.3254,-5.3214,-5.3291,-5.3305,-5.3382,-5.342,-5.3355,-5.3361,-5.3587,-5.3591,-5.3595,-5.3622,0,0,0,0,0,0,-5.2963,-5.2986,-5.3019,-5.3074,-5.3096,-5.3209,-5.3175,-5.3182,-5.3216,-5.3213,-5.3268,-5.3275,-5.329,-5.3373,-5.3389,-5.3427,-5.3366,-5.3584,-5.3589,-5.3593,-5.3618,-5.3627,-5.3634,0,0,0,0,0,-5.2956,-5.3021,-5.302,-5.3039,-5.3138,-5.3211,-5.3224,-5.3241,-5.3219,-5.3252,-5.328,-5.3273,-5.3414,-5.3381,-5.3399,-5.344,-5.3581,-5.3587,-5.3593,-5.3615,-5.3625,-5.3634,0,0,0,0,0,0,-5.2968,-5.3029,-5.3028,-5.3113,-5.3158,-5.321,-5.3251,-5.3252,-5.3301,-5.3297,-5.3316,-5.3328,-5.3406,-5.3431,-5.3393,-5.3526,-5.3495,-5.3505,-5.3505,-5.3516,-5.3523,-5.3514,-5.3371,0,0,0,0,0,-5.2981,-5.3036,-5.3086,-5.3157,-5.3179,-5.3212,-5.3244,-5.3254,-5.33,-5.3318,-5.3351,-5.3395,-5.345,-5.3485,-5.3537,-5.3624,-5.3635,-5.3661,-5.3669,-5.3675,-5.3682,-5.373,-5.3741,-5.3615,-5.3615,-5.3615,0,0,-5.3007,-5.3047,-5.3081,-5.316,-5.3195,-5.3251,-5.3227,-5.3287,-5.3329,-5.3327,-5.3401,-5.3428,-5.3479,-5.3561,-5.3599,-5.3584,-5.372,-5.3683,-5.3688,-5.3691,-5.3737,-5.3749,-5.3759,-5.3619,-5.3619,-5.3618,0,0,-5.3083,-5.312,-5.3182,-5.3219,-5.3274,-5.3296,-5.3311,-5.3365,-5.3382,-5.3459,-5.3459,-5.3509,-5.3602,-5.3638,-5.3668,-5.3762,-5.3757,-5.3779,-5.3819,-5.3865,-5.3875,-5.3883,-5.3915,-5.3926,-5.3787,-5.3787,-5.3787,0,-5.3108,-5.3193,-5.3214,-5.3275,-5.331,-5.3314,-5.3377,-5.3411,-5.3479,-5.3503,-5.3487,-5.3605,-5.364,-5.373,-5.3753,-5.3779,-5.3796,-5.377,-5.3872,-5.3881,-5.3889,-5.392,-5.3932,-5.3789,-5.3788,-5.3788,-5.3788,0,-5.3221,-5.328,-5.3324,-5.3391,-5.3432,-5.3494,-5.3524,-5.3562,-5.357,-5.3594,-5.3672,-5.3714,-5.3775,-5.3798,-5.3805,-5.389,-5.3879,-5.3868,-5.3836,-5.3903,-5.3932,-5.3944,-5.3792,-5.3791,-5.379,-5.379,0,0,-5.3302,-5.3384,-5.3399,-5.343,-5.3492,-5.3538,-5.3601,-5.3662,-5.3694,-5.3743,-5.3794,-5.3875,-5.3865,-5.39,-5.3912,-5.3953,-5.4023,-5.3937,-5.3938,-5.3949,-5.4118,-5.4124,-5.4137,-5.4023,-5.4025,-5.4027,-5.4113,0,-5.3382,-5.3494,-5.3516,-5.3612,-5.3667,-5.3674,-5.3728,-5.3772,-5.3797,-5.3847,-5.3875,-5.3931,-5.3915,-5.3936,-5.3977,-5.4006,-5.4057,-5.4001,-5.4069,-5.4071,-5.4053,-5.4152,-5.4159,-5.4237,-5.4125,-5.4127,-5.4128,0,-5.3489,-5.3542,-5.3644,-5.37,-5.3724,-5.3773,-5.3831,-5.388,-5.393,-5.3946,-5.3986,-5.3995,-5.406,-5.403,-5.4119,-5.408,-5.4111,-5.413,-5.4133,-5.4137,-5.4101,-5.4156,-5.4263,-5.4274,-5.4146,-5.4145,-5.4143,0,-5.3536,-5.3633,-5.3706,-5.3733,-5.3801,-5.3835,-5.3864,-5.3913,-5.3949,-5.4001,-5.4024,-5.4083,-5.4114,-5.4159,-5.4183,-5.4159,-5.4271,-5.4242,-5.4284,-5.4283,-5.4303,-5.4301,-5.4413,-5.4329,-5.4328,-5.4328,-5.4328,0,-5.3621,-5.3682,-5.3728,-5.3772,-5.3842,-5.3868,-5.3936,-5.3965,-5.4009,-5.406,-5.407,-5.4117,-5.4148,-5.4199,-5.4219,-5.4289,-5.4304,-5.4317,-5.4321,-5.4314,-5.4312,-5.4331,-5.4325,-5.4331,-5.4331,-5.433,-5.4329,0,-5.3682,-5.3715,-5.3796,-5.3855,-5.3871,-5.392,-5.397,-5.4014,-5.4041,-5.4104,-5.4121,-5.4163,-5.4224,-5.4254,-5.433,-5.4343,-5.4422,-5.4424,-5.4405,-5.4406,-5.4444,-5.4439,-5.457,-5.4588,-5.4494,-5.4495,-5.4496,0,-5.3732,-5.378,-5.3845,-5.388,-5.3911,-5.3968,-5.4005,-5.4034,-5.4073,-5.4136,-5.4172,-5.4234,-5.4285,-5.4383,-5.4419,-5.4478,-5.4479,-5.4521,-5.4487,-5.4479,-5.4476,-5.4472,-5.4476,-5.4525,-5.4526,-5.4527,-5.4528,0,-5.3817,-5.3832,-5.3886,-5.3947,-5.3992,-5.404,-5.4088,-5.4117,-5.4153,-5.4196,-5.426,-5.43,-5.4379,-5.444,-5.4501,-5.4532,-5.4535,-5.4539,-5.4551,-5.4543,-5.4529,-5.4534,-5.4418,-5.4535,-5.4534,-5.4533,-5.4533,-5.4533,-5.3873,-5.3915,-5.3968,-5.4029,-5.4069,-5.4114,-5.4158,-5.4192,-5.4246,-5.4312,-5.4327,-5.4394,-5.4445,-5.4529,-5.4561,-5.4614,-5.4604,-5.4623,-5.4627,-5.463,-5.4631,-5.4524,-5.4626,-5.4626,-5.4626,-5.4625,-5.4625,0,-5.3956,-5.3991,-5.4047,-5.4114,-5.4162,-5.4165,-5.4219,-5.4258,-5.4317,-5.4366,-5.4416,-5.449,-5.455,-5.4593,-5.4655,-5.4689,-5.4692,-5.4703,-5.4699,-5.4706,-5.4637,-5.4619,-5.47,-5.47,-5.47,-5.47,-5.47,-5.47,-5.4004,-5.4077,-5.4098,-5.4191,-5.4226,-5.4292,-5.4323,-5.4365,-5.4404,-5.4485,-5.4536,-5.4565,-5.4611,-5.4676,-5.4732,-5.4743,-5.4764,-5.4775,-5.4786,-5.4719,-5.4711,-5.4703,-5.4686,-5.478,-5.478,-5.485,-5.4851,-5.4851]},{"header":{"parameterUnit":"m.s-1","parameterCategory":1,"la1":30.2991,"la2":30.254,"lo1":-89.0895,"lo2":-89.0444,"dy":0.0017,"dx":0.0017,"nx":28,"ny":28,"refTime":"2025-03-27T21:00:00:Z","depth":0,"parameterNumber":3,"parameterNumberName":"V-component_of_WINDS"},"data":[0,0,0,0,0,0,0,0,0,0,0,0,0,0,0,0,0,0,0,0,0,0,0,0,0,0,0,0,0,0,0,0,0,0,0,0,0,0,0,0,0,0,0,0,0,0,0,0,0,0,0,0,0,0,0,0,0,0,3.9792,3.9793,0,3.988,3.9881,3.9882,3.9889,3.9888,3.9887,3.9886,3.997,3.9973,3.9976,0,0,0,0,0,0,0,0,0,0,0,0,0,3.9627,3.963,3.9792,3.9793,3.9795,3.988,3.9881,3.9883,3.9889,3.9888,3.9887,3.9885,3.9969,3.9973,3.9977,0,0,0,0,0,0,0,0,0,0,0,0,0,3.9705,3.9631,3.9792,3.9808,3.9811,3.988,3.9881,3.9883,3.9889,3.9888,3.9886,3.9885,3.9968,3.9973,3.9977,4.0035,0,0,3.9992,3.9994,0,0,0,0,0,0,0,0,3.9701,3.9711,3.9805,3.9807,3.981,3.9872,3.9854,3.9934,3.989,3.9859,3.9886,3.9884,3.9938,3.9945,3.9965,4.0039,4.0042,3.9992,3.9995,3.9997,3.9998,0,0,0,0,0,0,0,3.9695,3.9707,3.9827,3.9806,3.9809,3.981,3.982,3.9869,3.9905,3.9862,3.9862,3.9873,3.994,3.996,3.9967,4.0044,3.9992,3.9996,3.9999,4.0001,4.0173,4.0174,0,0,0,0,0,0,3.9687,3.9703,3.9824,3.983,3.9751,3.9814,3.9825,3.9854,3.9905,3.9912,3.9874,3.9873,3.9953,3.9961,3.997,4.0043,3.9997,4.0001,4.0004,4.0171,4.0173,4.0175,0,0,0,0,0,0,3.9684,3.9698,3.9821,3.9767,3.9782,3.9819,3.9851,3.9856,3.9877,3.9915,3.9921,3.9889,3.9952,3.9963,4.002,4.0046,4.0003,4.0008,4.0169,4.0171,4.0174,4.0188,0,0,0,0,0,0,3.9679,3.9697,3.972,3.9767,3.9785,3.987,3.9852,3.9859,3.9886,3.9885,3.993,3.9936,3.9952,4.0013,4.0025,4.0052,4.0011,4.0167,4.017,4.0173,4.0185,4.0191,4.0196,0,0,0,0,0,3.9673,3.9718,3.9721,3.9735,3.9815,3.9871,3.9882,3.9901,3.9888,3.9911,3.9936,3.9935,4.0041,4.0019,4.0032,4.0061,4.0165,4.0169,4.0173,4.0183,4.019,4.0195,0,0,0,0,0,0,3.9669,3.9724,3.9728,3.979,3.9826,3.9872,3.9902,3.9906,3.9946,3.9943,3.9963,3.9973,4.003,4.0051,4.0024,4.0121,4.0102,4.0108,4.0105,4.0112,4.0117,4.011,4.0015,0,0,0,0,0,3.9677,3.972,3.9764,3.9815,3.9833,3.9865,3.989,3.9902,3.994,3.9954,3.9983,4.0018,4.006,4.0087,4.0127,4.0189,4.0199,4.0215,4.022,4.0224,4.023,4.0266,4.0275,4.0188,4.0188,4.0188,0,0,3.969,3.9725,3.9751,3.9815,3.9845,3.9888,3.9877,3.9923,3.9955,3.9961,4.0017,4.0039,4.008,4.0141,4.0168,4.016,4.0257,4.0229,4.0232,4.0236,4.0271,4.0279,4.0287,4.019,4.019,4.0189,0,0,3.9738,3.9768,3.9815,3.9846,3.9893,3.9914,3.9925,3.9972,3.9988,4.0045,4.0051,4.0089,4.016,4.019,4.0215,4.0278,4.0279,4.029,4.0316,4.0352,4.0359,4.0365,4.0389,4.0397,4.0296,4.0296,4.0296,0,3.9748,3.9816,3.9838,3.9885,3.9914,3.9924,3.9972,4.0,4.0056,4.0075,4.0065,4.0157,4.0185,4.0254,4.027,4.0289,4.0303,4.0285,4.0356,4.0363,4.0369,4.0392,4.0401,4.0297,4.0297,4.0297,4.0296,0,3.9827,3.9874,3.9906,3.9964,3.9996,4.0043,4.0072,4.0102,4.0112,4.0134,4.0193,4.0228,4.0277,4.0294,4.0303,4.0365,4.0358,4.0352,4.0333,4.0378,4.04,4.0409,4.0299,4.0298,4.0298,4.0297,0,0,3.9872,3.9945,3.9957,3.9984,4.0038,4.0074,4.0122,4.0173,4.0198,4.0237,4.0279,4.034,4.0336,4.0364,4.0377,4.0408,4.0458,4.0398,4.0399,4.0409,4.053,4.0535,4.0545,4.046,4.0461,4.0463,4.0528,0,3.9927,4.0015,4.0038,4.0113,4.0157,4.0169,4.0211,4.0248,4.0271,4.0311,4.0336,4.038,4.037,4.0388,4.0419,4.0445,4.0483,4.0441,4.0498,4.05,4.0488,4.0557,4.0561,4.0621,4.0536,4.0538,4.0539,0,4.0002,4.0046,4.0126,4.0177,4.0197,4.0234,4.0284,4.0323,4.0366,4.038,4.0413,4.0424,4.0475,4.0454,4.0524,4.0495,4.052,4.0537,4.054,4.0546,4.0522,4.0565,4.064,4.0649,4.0552,4.0551,4.055,0,4.0029,4.0108,4.0168,4.019,4.0251,4.0278,4.0304,4.0346,4.0376,4.0419,4.0438,4.0486,4.0512,4.0548,4.0571,4.0554,4.064,4.0621,4.0654,4.0653,4.0671,4.067,4.0751,4.0686,4.0686,4.0686,4.0686,0,4.0088,4.0136,4.0181,4.0217,4.0273,4.0299,4.0352,4.0379,4.0417,4.0458,4.047,4.0508,4.0536,4.0578,4.0597,4.0653,4.0664,4.0677,4.0682,4.0677,4.0675,4.0693,4.069,4.0688,4.0688,4.0687,4.0687,0,4.0127,4.0159,4.0224,4.0278,4.0293,4.0331,4.0376,4.0412,4.0436,4.0489,4.0502,4.054,4.0591,4.0618,4.068,4.0692,4.0756,4.0758,4.0743,4.0745,4.0777,4.0774,4.0873,4.0888,4.0812,4.0812,4.0813,0,4.0163,4.0201,4.026,4.029,4.0318,4.0365,4.0397,4.0425,4.0457,4.0511,4.0541,4.0593,4.0636,4.0716,4.0748,4.0796,4.08,4.0831,4.0807,4.0802,4.0802,4.0799,4.0804,4.0835,4.0836,4.0837,4.0837,0,4.0223,4.0238,4.0285,4.0338,4.0377,4.0419,4.046,4.0484,4.0519,4.0554,4.0608,4.0642,4.0708,4.0759,4.0811,4.0837,4.0843,4.0845,4.0855,4.0851,4.0841,4.0848,4.0755,4.0842,4.0842,4.0841,4.0841,4.0841,4.0263,4.0299,4.0347,4.0399,4.0435,4.0474,4.0512,4.0542,4.0588,4.0646,4.0659,4.0716,4.076,4.083,4.0858,4.0903,4.0896,4.0911,4.0914,4.0918,4.092,4.0834,4.0912,4.0912,4.0911,4.0911,4.0911,0,4.0326,4.0358,4.0406,4.0466,4.0508,4.0513,4.056,4.0594,4.0645,4.0687,4.073,4.0793,4.0844,4.0881,4.0933,4.0962,4.0966,4.0975,4.0973,4.0979,4.0922,4.0909,4.097,4.097,4.097,4.097,4.097,4.097,4.0363,4.0425,4.0446,4.0526,4.0558,4.0616,4.0643,4.068,4.0714,4.0784,4.0827,4.0853,4.0893,4.0949,4.0996,4.1006,4.1025,4.1033,4.1043,4.0989,4.0983,4.0977,4.0964,4.1037,4.1037,4.1097,4.1098,4.1098]}]]